Time,TemperatureF,DewpointF,PressureIn,WindDirection,WindDirectionDegrees,WindSpeedMPH,WindSpeedGustMPH,Humidity,HourlyPrecipIn,Conditions,Clouds,dailyrainin,SoftwareType,DateUTC
2013-05-28 00:00:00,54.5,53.9,29.83,ENE,63,2.0,2.0,98,0.00,,,0.03,Wunderground v.1.15,2013-05-28 05:00:00,
2013-05-28 00:05:00,54.5,53.9,29.83,ENE,75,2.0,2.0,98,0.00,,,0.00,Wunderground v.1.15,2013-05-28 05:05:00,
2013-05-28 00:10:00,54.6,54.0,29.82,NE,49,2.0,3.0,98,0.00,,,0.00,Wunderground v.1.15,2013-05-28 05:10:00,
2013-05-28 00:15:00,54.6,54.0,29.82,ENE,76,2.0,3.0,98,0.00,,,0.00,Wunderground v.1.15,2013-05-28 05:15:00,
2013-05-28 00:20:00,54.7,54.1,29.82,NE,55,2.0,2.0,98,0.00,,,0.00,Wunderground v.1.15,2013-05-28 05:20:00,
2013-05-28 00:25:00,54.7,54.1,29.82,East,101,2.0,2.0,98,0.00,,,0.00,Wunderground v.1.15,2013-05-28 05:25:00,
2013-05-28 00:30:00,54.8,54.2,29.82,East,100,1.0,1.0,98,0.00,,,0.00,Wunderground v.1.15,2013-05-28 05:30:00,
2013-05-28 00:35:00,54.8,54.5,29.82,East,84,1.0,1.0,99,0.00,,,0.00,Wunderground v.1.15,2013-05-28 05:35:00,
2013-05-28 00:40:00,54.9,54.6,29.82,ESE,115,1.0,1.0,99,0.00,,,0.00,Wunderground v.1.15,2013-05-28 05:40:00,
2013-05-28 00:45:00,54.9,54.6,29.82,East,93,1.0,1.0,99,0.00,,,0.00,Wunderground v.1.15,2013-05-28 05:45:00,
2013-05-28 00:50:00,54.9,54.6,29.82,ENE,69,1.0,3.0,99,0.00,,,0.00,Wunderground v.1.15,2013-05-28 05:50:00,
2013-05-28 00:55:00,55.0,54.7,29.82,East,101,2.0,3.0,99,0.00,,,0.01,Wunderground v.1.15,2013-05-28 05:55:00,
2013-05-28 01:00:00,54.9,54.3,29.82,East,82,2.0,2.0,98,0.00,,,0.01,Wunderground v.1.15,2013-05-28 06:00:00,
2013-05-28 01:05:00,55.0,54.4,29.81,East,94,2.0,2.0,98,0.00,,,0.01,Wunderground v.1.15,2013-05-28 06:05:00,
2013-05-28 01:10:00,55.0,54.4,29.81,East,100,3.0,3.0,98,0.27,,,0.03,Wunderground v.1.15,2013-05-28 06:10:00,
2013-05-28 01:15:00,55.0,54.4,29.81,ESE,106,3.0,3.0,98,0.19,,,0.05,Wunderground v.1.15,2013-05-28 06:15:00,
2013-05-28 01:20:00,55.0,54.4,29.81,ESE,109,2.0,2.0,98,1.17,,,0.12,Wunderground v.1.15,2013-05-28 06:20:00,
2013-05-28 01:25:00,55.0,54.7,29.81,East,91,2.0,3.0,99,1.00,,,0.22,Wunderground v.1.15,2013-05-28 06:25:00,
2013-05-28 01:40:00,55.2,54.9,29.80,ENE,71,3.0,3.0,99,0.07,,,0.30,Wunderground v.1.15,2013-05-28 06:40:00,
2013-05-28 01:45:00,55.3,55.0,29.79,East,101,2.0,3.0,99,0.75,,,0.32,Wunderground v.1.15,2013-05-28 06:45:00,
2013-05-28 01:50:00,55.3,55.0,29.80,East,90,3.0,3.0,99,0.12,,,0.32,Wunderground v.1.15,2013-05-28 06:50:00,
2013-05-28 01:55:00,55.4,55.1,29.79,East,98,3.0,3.0,99,0.06,,,0.32,Wunderground v.1.15,2013-05-28 06:55:00,
2013-05-28 02:00:00,55.4,55.1,29.78,East,101,3.0,3.0,99,0.04,,,0.32,Wunderground v.1.15,2013-05-28 07:00:00,
2013-05-28 02:05:00,55.5,55.2,29.78,East,88,3.0,3.0,99,0.00,,,0.32,Wunderground v.1.15,2013-05-28 07:05:00,
2013-05-28 02:10:00,55.5,55.2,29.78,East,79,3.0,3.0,99,0.00,,,0.32,Wunderground v.1.15,2013-05-28 07:10:00,
2013-05-28 02:15:00,55.6,55.3,29.77,East,101,3.0,5.0,99,0.00,,,0.32,Wunderground v.1.15,2013-05-28 07:15:00,
2013-05-28 02:20:00,55.7,55.4,29.77,ESE,108,3.0,4.0,99,0.00,,,0.32,Wunderground v.1.15,2013-05-28 07:20:00,
2013-05-28 02:25:00,55.8,55.5,29.76,East,86,3.0,5.0,99,0.00,,,0.32,Wunderground v.1.15,2013-05-28 07:25:00,
2013-05-28 02:30:00,55.9,55.6,29.76,East,98,3.0,3.0,99,0.00,,,0.32,Wunderground v.1.15,2013-05-28 07:30:00,
2013-05-28 02:35:00,56.0,55.7,29.76,East,86,2.0,3.0,99,0.00,,,0.32,Wunderground v.1.15,2013-05-28 07:35:00,
2013-05-28 02:40:00,56.1,55.8,29.76,ESE,107,2.0,2.0,99,0.00,,,0.32,Wunderground v.1.15,2013-05-28 07:40:00,
2013-05-28 02:45:00,56.2,55.9,29.76,SSE,147,2.0,3.0,99,0.00,,,0.32,Wunderground v.1.15,2013-05-28 07:45:00,
2013-05-28 02:50:00,56.2,55.9,29.76,SE,142,2.0,2.0,99,0.00,,,0.32,Wunderground v.1.15,2013-05-28 07:50:00,
2013-05-28 02:55:00,56.2,55.9,29.76,East,100,3.0,3.0,99,0.00,,,0.32,Wunderground v.1.15,2013-05-28 07:55:00,
2013-05-28 03:00:00,56.3,56.0,29.76,SSE,162,2.0,4.0,99,0.00,,,0.32,Wunderground v.1.15,2013-05-28 08:00:00,
2013-05-28 03:05:00,56.3,56.0,29.76,East,94,2.0,4.0,99,0.00,,,0.32,Wunderground v.1.15,2013-05-28 08:05:00,
2013-05-28 03:10:00,56.3,56.0,29.76,ESE,103,2.0,2.0,99,0.00,,,0.32,Wunderground v.1.15,2013-05-28 08:10:00,
2013-05-28 03:15:00,56.4,56.1,29.75,East,96,2.0,5.0,99,0.00,,,0.32,Wunderground v.1.15,2013-05-28 08:15:00,
2013-05-28 03:20:00,56.4,56.1,29.75,ENE,70,3.0,3.0,99,0.00,,,0.32,Wunderground v.1.15,2013-05-28 08:20:00,
2013-05-28 03:25:00,56.4,56.1,29.75,East,82,2.0,3.0,99,0.00,,,0.32,Wunderground v.1.15,2013-05-28 08:25:00,
2013-05-28 03:30:00,56.5,56.2,29.75,East,88,2.0,2.0,99,0.00,,,0.32,Wunderground v.1.15,2013-05-28 08:30:00,
2013-05-28 03:35:00,56.5,56.2,29.75,ENE,67,2.0,2.0,99,0.00,,,0.32,Wunderground v.1.15,2013-05-28 08:35:00,
2013-05-28 03:40:00,56.6,56.3,29.75,East,82,2.0,2.0,99,0.00,,,0.32,Wunderground v.1.15,2013-05-28 08:40:00,
2013-05-28 03:45:00,56.7,56.4,29.75,NE,53,2.0,2.0,99,0.00,,,0.32,Wunderground v.1.15,2013-05-28 08:45:00,
2013-05-28 03:50:00,56.8,56.5,29.75,ENE,69,2.0,2.0,99,0.00,,,0.32,Wunderground v.1.15,2013-05-28 08:50:00,
2013-05-28 03:55:00,56.8,56.5,29.75,ENE,59,1.0,2.0,99,0.00,,,0.32,Wunderground v.1.15,2013-05-28 08:55:00,
2013-05-28 04:00:00,56.9,56.6,29.75,ENE,58,1.0,2.0,99,0.00,,,0.32,Wunderground v.1.15,2013-05-28 09:00:00,
2013-05-28 04:05:00,56.8,56.5,29.75,ESE,104,1.0,3.0,99,0.00,,,0.32,Wunderground v.1.15,2013-05-28 09:05:00,
2013-05-28 04:10:00,56.8,56.5,29.74,East,80,2.0,5.0,99,0.00,,,0.32,Wunderground v.1.15,2013-05-28 09:10:00,
2013-05-28 04:15:00,56.8,56.5,29.74,East,87,2.0,5.0,99,0.00,,,0.32,Wunderground v.1.15,2013-05-28 09:15:00,
2013-05-28 04:20:00,56.9,56.6,29.74,ENE,71,3.0,3.0,99,0.00,,,0.32,Wunderground v.1.15,2013-05-28 09:20:00,
2013-05-28 04:25:00,56.9,56.6,29.74,ESE,104,3.0,3.0,99,0.00,,,0.32,Wunderground v.1.15,2013-05-28 09:25:00,
2013-05-28 04:30:00,57.0,56.7,29.74,East,81,3.0,3.0,99,0.00,,,0.32,Wunderground v.1.15,2013-05-28 09:30:00,
2013-05-28 04:35:00,57.1,56.8,29.74,ESE,111,2.0,3.0,99,0.00,,,0.32,Wunderground v.1.15,2013-05-28 09:35:00,
2013-05-28 04:40:00,57.2,56.9,29.74,East,79,2.0,5.0,99,0.00,,,0.32,Wunderground v.1.15,2013-05-28 09:40:00,
2013-05-28 04:45:00,57.3,57.0,29.74,ESE,111,3.0,5.0,99,0.00,,,0.32,Wunderground v.1.15,2013-05-28 09:45:00,
2013-05-28 04:50:00,57.3,57.0,29.74,East,98,3.0,3.0,99,0.00,,,0.32,Wunderground v.1.15,2013-05-28 09:50:00,
2013-05-28 04:55:00,57.4,57.1,29.73,East,84,3.0,3.0,99,0.00,,,0.33,Wunderground v.1.15,2013-05-28 09:55:00,
2013-05-28 05:00:00,57.6,57.3,29.74,East,79,2.0,3.0,99,0.00,,,0.33,Wunderground v.1.15,2013-05-28 10:00:00,
2013-05-28 05:10:00,57.8,57.5,29.74,East,85,2.0,3.0,99,0.00,,,0.33,Wunderground v.1.15,2013-05-28 10:10:00,
2013-05-28 05:15:00,57.9,57.6,29.74,East,94,2.0,3.0,99,0.00,,,0.33,Wunderground v.1.15,2013-05-28 10:15:00,
2013-05-28 05:20:00,58.0,57.7,29.74,ESE,111,2.0,2.0,99,0.00,,,0.33,Wunderground v.1.15,2013-05-28 10:20:00,
2013-05-28 05:25:00,58.1,57.8,29.73,East,96,2.0,3.0,99,0.00,,,0.33,Wunderground v.1.15,2013-05-28 10:25:00,
2013-05-28 05:30:00,58.2,57.9,29.74,East,96,2.0,2.0,99,0.00,,,0.33,Wunderground v.1.15,2013-05-28 10:30:00,
2013-05-28 05:35:00,58.3,58.0,29.73,East,85,3.0,3.0,99,0.00,,,0.33,Wunderground v.1.15,2013-05-28 10:35:00,
2013-05-28 05:40:00,58.4,58.1,29.73,East,94,2.0,2.0,99,0.00,,,0.33,Wunderground v.1.15,2013-05-28 10:40:00,
2013-05-28 05:45:00,58.6,58.3,29.73,East,83,2.0,3.0,99,0.00,,,0.33,Wunderground v.1.15,2013-05-28 10:45:00,
2013-05-28 05:50:00,58.8,58.5,29.72,ESE,103,2.0,2.0,99,0.00,,,0.33,Wunderground v.1.15,2013-05-28 10:50:00,
2013-05-28 05:55:00,59.1,58.8,29.72,ESE,111,2.0,2.0,99,0.00,,,0.33,Wunderground v.1.15,2013-05-28 10:55:00,
2013-05-28 06:00:00,59.5,59.2,29.72,East,98,2.0,2.0,99,0.00,,,0.33,Wunderground v.1.15,2013-05-28 11:00:00,
2013-05-28 06:05:00,59.7,59.4,29.72,East,94,3.0,3.0,99,0.00,,,0.33,Wunderground v.1.15,2013-05-28 11:05:00,
2013-05-28 06:10:00,59.9,59.6,29.72,SSE,161,2.0,2.0,99,0.00,,,0.33,Wunderground v.1.15,2013-05-28 11:10:00,
2013-05-28 06:15:00,60.2,59.9,29.72,SE,140,2.0,2.0,99,0.00,,,0.33,Wunderground v.1.15,2013-05-28 11:15:00,
2013-05-28 06:20:00,60.3,60.0,29.73,SE,130,3.0,3.0,99,0.00,,,0.33,Wunderground v.1.15,2013-05-28 11:20:00,
2013-05-28 06:25:00,60.5,60.2,29.73,SE,128,3.0,3.0,99,0.00,,,0.33,Wunderground v.1.15,2013-05-28 11:25:00,
2013-05-28 06:30:00,60.7,60.4,29.73,SE,126,3.0,3.0,99,0.00,,,0.33,Wunderground v.1.15,2013-05-28 11:30:00,
2013-05-28 06:35:00,60.9,60.6,29.73,SE,124,2.0,3.0,99,0.00,,,0.33,Wunderground v.1.15,2013-05-28 11:35:00,
2013-05-28 06:40:00,61.2,60.9,29.73,ENE,78,3.0,3.0,99,0.00,,,0.33,Wunderground v.1.15,2013-05-28 11:40:00,
2013-05-28 06:45:00,61.5,61.2,29.72,East,86,3.0,3.0,99,0.00,,,0.33,Wunderground v.1.15,2013-05-28 11:45:00,
2013-05-28 06:50:00,61.8,61.5,29.72,SSE,163,3.0,3.0,99,0.00,,,0.33,Wunderground v.1.15,2013-05-28 11:50:00,
2013-05-28 06:55:00,62.0,61.7,29.71,ENE,65,2.0,3.0,99,0.00,,,0.33,Wunderground v.1.15,2013-05-28 11:55:00,
2013-05-28 07:00:00,62.2,61.9,29.71,SE,132,2.0,2.0,99,0.00,,,0.33,Wunderground v.1.15,2013-05-28 12:00:00,
2013-05-28 07:05:00,62.3,62.0,29.71,SSE,161,2.0,2.0,99,0.00,,,0.33,Wunderground v.1.15,2013-05-28 12:05:00,
2013-05-28 07:10:00,62.5,62.2,29.70,ESE,115,2.0,2.0,99,0.00,,,0.33,Wunderground v.1.15,2013-05-28 12:10:00,
2013-05-28 07:15:00,62.8,62.5,29.69,SSE,161,2.0,6.0,99,0.00,,,0.33,Wunderground v.1.15,2013-05-28 12:15:00,
2013-05-28 07:20:00,63.1,62.8,29.69,SE,130,2.0,2.0,99,0.00,,,0.33,Wunderground v.1.15,2013-05-28 12:20:00,
2013-05-28 07:25:00,63.2,62.9,29.70,SSE,153,2.0,2.0,99,0.00,,,0.33,Wunderground v.1.15,2013-05-28 12:25:00,
2013-05-28 07:30:00,63.3,63.0,29.70,SSW,192,2.0,2.0,99,0.00,,,0.33,Wunderground v.1.15,2013-05-28 12:30:00,
2013-05-28 07:35:00,63.5,63.2,29.70,ENE,71,2.0,2.0,99,0.00,,,0.33,Wunderground v.1.15,2013-05-28 12:35:00,
2013-05-28 07:40:00,63.7,63.4,29.71,West,277,2.0,4.0,99,0.00,,,0.33,Wunderground v.1.15,2013-05-28 12:40:00,
2013-05-28 07:45:00,63.9,63.6,29.73,West,269,2.0,4.0,99,0.00,,,0.33,Wunderground v.1.15,2013-05-28 12:45:00,
2013-05-28 07:50:00,64.0,63.7,29.73,SW,219,4.0,4.0,99,0.00,,,0.33,Wunderground v.1.15,2013-05-28 12:50:00,
2013-05-28 07:55:00,64.1,63.8,29.73,WNW,283,4.0,4.0,99,0.00,,,0.33,Wunderground v.1.15,2013-05-28 12:55:00,
2013-05-28 08:00:00,64.3,64.0,29.73,West,268,3.0,5.0,99,0.00,,,0.33,Wunderground v.1.15,2013-05-28 13:00:00,
2013-05-28 08:05:00,64.3,64.0,29.73,WNW,290,3.0,5.0,99,0.00,,,0.33,Wunderground v.1.15,2013-05-28 13:05:00,
2013-05-28 08:10:00,64.3,64.0,29.72,West,271,2.0,2.0,99,0.00,,,0.33,Wunderground v.1.15,2013-05-28 13:10:00,
2013-05-28 08:15:00,64.4,64.1,29.72,West,271,2.0,2.0,99,0.00,,,0.33,Wunderground v.1.15,2013-05-28 13:15:00,
2013-05-28 08:20:00,64.5,64.2,29.72,West,271,1.0,1.0,99,0.00,,,0.33,Wunderground v.1.15,2013-05-28 13:20:00,
2013-05-28 08:25:00,64.6,64.3,29.70,NNE,26,1.0,1.0,99,0.00,,,0.33,Wunderground v.1.15,2013-05-28 13:25:00,
2013-05-28 08:30:00,64.6,64.3,29.70,NNE,26,1.0,1.0,99,0.00,,,0.33,Wunderground v.1.15,2013-05-28 13:30:00,
2013-05-28 08:35:00,64.6,64.3,29.71,NNE,26,1.0,1.0,99,0.00,,,0.33,Wunderground v.1.15,2013-05-28 13:35:00,
2013-05-28 08:40:00,64.7,64.4,29.71,NNE,26,1.0,1.0,99,0.00,,,0.33,Wunderground v.1.15,2013-05-28 13:40:00,
2013-05-28 08:45:00,64.8,64.5,29.70,NNE,26,0.0,1.0,99,0.00,,,0.33,Wunderground v.1.15,2013-05-28 13:45:00,
2013-05-28 08:50:00,65.0,64.7,29.70,NNE,26,0.0,0.0,99,0.00,,,0.33,Wunderground v.1.15,2013-05-28 13:50:00,
2013-05-28 08:55:00,65.2,64.9,29.70,NNE,26,0.0,1.0,99,0.00,,,0.33,Wunderground v.1.15,2013-05-28 13:55:00,
2013-05-28 09:00:00,65.3,65.0,29.70,NNE,26,0.0,1.0,99,0.00,,,0.33,Wunderground v.1.15,2013-05-28 14:00:00,
2013-05-28 09:05:00,65.5,65.2,29.70,NNE,26,1.0,1.0,99,0.00,,,0.33,Wunderground v.1.15,2013-05-28 14:05:00,
2013-05-28 09:10:00,65.7,65.4,29.71,NNE,26,1.0,1.0,99,0.00,,,0.33,Wunderground v.1.15,2013-05-28 14:10:00,
2013-05-28 09:15:00,65.9,65.6,29.71,NNE,26,1.0,1.0,99,0.00,,,0.33,Wunderground v.1.15,2013-05-28 14:15:00,
2013-05-28 09:20:00,65.9,65.6,29.71,ENE,66,1.0,1.0,99,0.00,,,0.33,Wunderground v.1.15,2013-05-28 14:20:00,
2013-05-28 09:25:00,65.9,65.3,29.72,SE,129,1.0,1.0,98,0.00,,,0.33,Wunderground v.1.15,2013-05-28 14:25:00,
2013-05-28 09:30:00,66.0,65.4,29.73,SSE,165,1.0,1.0,98,0.00,,,0.33,Wunderground v.1.15,2013-05-28 14:30:00,
2013-05-28 09:35:00,66.1,65.5,29.72,SE,146,2.0,3.0,98,0.00,,,0.33,Wunderground v.1.15,2013-05-28 14:35:00,
2013-05-28 09:40:00,66.3,65.7,29.72,East,84,2.0,2.0,98,0.00,,,0.33,Wunderground v.1.15,2013-05-28 14:40:00,
2013-05-28 09:45:00,66.5,65.9,29.72,SE,135,2.0,3.0,98,0.00,,,0.33,Wunderground v.1.15,2013-05-28 14:45:00,
2013-05-28 09:50:00,66.5,65.6,29.72,SSE,151,3.0,3.0,97,0.00,,,0.33,Wunderground v.1.15,2013-05-28 14:50:00,
2013-05-28 09:55:00,66.7,65.8,29.71,SE,133,2.0,3.0,97,0.00,,,0.33,Wunderground v.1.15,2013-05-28 14:55:00,
2013-05-28 10:00:00,66.9,66.0,29.72,South,187,1.0,4.0,97,0.00,,,0.33,Wunderground v.1.15,2013-05-28 15:00:00,
2013-05-28 10:05:00,66.9,65.7,29.72,SE,144,2.0,4.0,96,0.00,,,0.33,Wunderground v.1.15,2013-05-28 15:05:00,
2013-05-28 10:10:00,66.9,65.7,29.71,South,186,2.0,2.0,96,0.00,,,0.33,Wunderground v.1.15,2013-05-28 15:10:00,
2013-05-28 10:15:00,67.0,65.8,29.71,SSE,161,2.0,2.0,96,0.00,,,0.33,Wunderground v.1.15,2013-05-28 15:15:00,
2013-05-28 10:20:00,67.2,66.3,29.71,SSE,152,1.0,2.0,97,0.00,,,0.33,Wunderground v.1.15,2013-05-28 15:20:00,
2013-05-28 10:25:00,67.4,66.5,29.71,SSW,196,1.0,2.0,97,0.00,,,0.33,Wunderground v.1.15,2013-05-28 15:25:00,
2013-05-28 10:30:00,67.7,66.5,29.71,South,171,2.0,2.0,96,0.00,,,0.33,Wunderground v.1.15,2013-05-28 15:30:00,
2013-05-28 10:35:00,67.9,66.4,29.71,SSW,210,2.0,3.0,95,0.00,,,0.33,Wunderground v.1.15,2013-05-28 15:35:00,
2013-05-28 10:40:00,68.1,66.3,29.71,SE,136,2.0,2.0,94,0.00,,,0.33,Wunderground v.1.15,2013-05-28 15:40:00,
2013-05-28 10:45:00,68.2,66.4,29.71,WSW,238,2.0,2.0,94,0.00,,,0.33,Wunderground v.1.15,2013-05-28 15:45:00,
2013-05-28 10:50:00,68.2,66.1,29.71,SW,223,2.0,2.0,93,0.00,,,0.33,Wunderground v.1.15,2013-05-28 15:50:00,
2013-05-28 10:55:00,68.3,66.2,29.71,WSW,243,3.0,3.0,93,0.00,,,0.33,Wunderground v.1.15,2013-05-28 15:55:00,
2013-05-28 11:00:00,68.5,66.4,29.71,SW,236,4.0,4.0,93,0.00,,,0.33,Wunderground v.1.15,2013-05-28 16:00:00,
2013-05-28 11:05:00,69.1,66.4,29.71,South,178,4.0,11.0,91,0.00,,,0.33,Wunderground v.1.15,2013-05-28 16:05:00,
2013-05-28 11:10:00,69.6,66.9,29.71,SSW,192,4.0,4.0,91,0.00,,,0.33,Wunderground v.1.15,2013-05-28 16:10:00,
2013-05-28 11:15:00,70.1,67.3,29.71,SSW,213,5.0,6.0,91,0.00,,,0.33,Wunderground v.1.15,2013-05-28 16:15:00,
2013-05-28 11:25:00,70.5,66.8,29.71,WSW,249,4.0,4.0,88,0.00,,,0.33,Wunderground v.1.15,2013-05-28 16:25:00,
2013-05-28 11:30:00,70.4,66.3,29.72,NW,309,5.0,5.0,87,0.00,,,0.33,Wunderground v.1.15,2013-05-28 16:30:00,
2013-05-28 11:35:00,70.3,66.6,29.72,WSW,243,5.0,5.0,88,0.00,,,0.33,Wunderground v.1.15,2013-05-28 16:35:00,
2013-05-28 11:40:00,70.3,66.6,29.72,WSW,242,4.0,4.0,88,0.00,,,0.33,Wunderground v.1.15,2013-05-28 16:40:00,
2013-05-28 11:45:00,70.6,66.5,29.72,SW,225,4.0,4.0,87,0.00,,,0.33,Wunderground v.1.15,2013-05-28 16:45:00,
2013-05-28 11:50:00,71.1,67.4,29.72,SW,230,3.0,5.0,88,0.00,,,0.33,Wunderground v.1.15,2013-05-28 16:50:00,
2013-05-28 11:55:00,71.7,66.9,29.71,South,191,4.0,5.0,85,0.00,,,0.33,Wunderground v.1.15,2013-05-28 16:55:00,
2013-05-28 12:00:00,71.8,67.0,29.72,SSW,213,5.0,5.0,85,0.00,,,0.33,Wunderground v.1.15,2013-05-28 17:00:00,
2013-05-28 12:05:00,71.7,66.9,29.72,SSW,202,4.0,5.0,85,0.00,,,0.33,Wunderground v.1.15,2013-05-28 17:05:00,
2013-05-28 12:10:00,71.7,67.3,29.72,South,188,3.0,4.0,86,0.00,,,0.33,Wunderground v.1.15,2013-05-28 17:10:00,
2013-05-28 12:15:00,71.9,67.1,29.72,South,174,4.0,9.0,85,0.00,,,0.33,Wunderground v.1.15,2013-05-28 17:15:00,
2013-05-28 12:20:00,71.9,67.1,29.72,SSW,201,4.0,4.0,85,0.00,,,0.33,Wunderground v.1.15,2013-05-28 17:20:00,
2013-05-28 12:25:00,71.9,66.8,29.71,SW,235,4.0,4.0,84,0.00,,,0.33,Wunderground v.1.15,2013-05-28 17:25:00,
2013-05-28 12:30:00,71.8,66.7,29.72,SSW,198,4.0,4.0,84,0.00,,,0.33,Wunderground v.1.15,2013-05-28 17:30:00,
2013-05-28 12:35:00,71.7,66.6,29.71,West,273,4.0,4.0,84,0.00,,,0.33,Wunderground v.1.15,2013-05-28 17:35:00,
2013-05-28 12:45:00,71.5,66.8,29.72,SSW,211,4.0,5.0,85,0.00,,,0.33,Wunderground v.1.15,2013-05-28 17:45:00,
2013-05-28 12:50:00,71.3,66.9,29.72,WSW,241,4.0,4.0,86,0.00,,,0.33,Wunderground v.1.15,2013-05-28 17:50:00,
2013-05-28 12:55:00,71.1,66.7,29.72,WSW,255,4.0,4.0,86,0.00,,,0.33,Wunderground v.1.15,2013-05-28 17:55:00,
2013-05-28 13:00:00,71.0,66.9,29.72,WSW,243,4.0,4.0,87,0.00,,,0.33,Wunderground v.1.15,2013-05-28 18:00:00,
2013-05-28 13:05:00,70.9,67.2,29.72,West,273,3.0,4.0,88,0.00,,,0.33,Wunderground v.1.15,2013-05-28 18:05:00,
2013-05-28 13:10:00,70.8,67.1,29.72,SSW,210,2.0,2.0,88,0.00,,,0.33,Wunderground v.1.15,2013-05-28 18:10:00,
2013-05-28 13:15:00,70.9,67.2,29.71,WSW,242,2.0,4.0,88,0.00,,,0.33,Wunderground v.1.15,2013-05-28 18:15:00,
2013-05-28 13:20:00,70.9,67.5,29.71,West,259,2.0,3.0,89,0.00,,,0.33,Wunderground v.1.15,2013-05-28 18:20:00,
2013-05-28 13:25:00,70.9,67.5,29.71,SW,214,2.0,3.0,89,0.00,,,0.33,Wunderground v.1.15,2013-05-28 18:25:00,
2013-05-28 13:30:00,70.9,67.8,29.71,SW,233,2.0,3.0,90,0.00,,,0.33,Wunderground v.1.15,2013-05-28 18:30:00,
2013-05-28 13:35:00,70.9,67.8,29.71,SW,228,3.0,3.0,90,0.00,,,0.33,Wunderground v.1.15,2013-05-28 18:35:00,
2013-05-28 13:40:00,71.0,68.2,29.71,SW,232,2.0,3.0,91,0.00,,,0.33,Wunderground v.1.15,2013-05-28 18:40:00,
2013-05-28 13:45:00,71.1,68.0,29.71,SSW,203,2.0,5.0,90,0.00,,,0.33,Wunderground v.1.15,2013-05-28 18:45:00,
2013-05-28 13:50:00,71.3,68.5,29.71,SW,223,3.0,3.0,91,0.00,,,0.33,Wunderground v.1.15,2013-05-28 18:50:00,
2013-05-28 13:55:00,71.5,68.4,29.70,SSW,198,3.0,3.0,90,0.00,,,0.33,Wunderground v.1.15,2013-05-28 18:55:00,
2013-05-28 14:00:00,71.7,68.9,29.70,SSE,156,3.0,4.0,91,0.00,,,0.33,Wunderground v.1.15,2013-05-28 19:00:00,
2013-05-28 14:05:00,71.9,68.8,29.70,SSW,203,3.0,4.0,90,0.00,,,0.33,Wunderground v.1.15,2013-05-28 19:05:00,
2013-05-28 14:10:00,72.1,69.0,29.71,SSW,200,3.0,3.0,90,0.00,,,0.33,Wunderground v.1.15,2013-05-28 19:10:00,
2013-05-28 14:15:00,72.4,69.3,29.71,SW,215,3.0,4.0,90,0.00,,,0.33,Wunderground v.1.15,2013-05-28 19:15:00,
2013-05-28 14:20:00,72.8,69.7,29.70,South,176,3.0,3.0,90,0.00,,,0.33,Wunderground v.1.15,2013-05-28 19:20:00,
2013-05-28 14:25:00,73.2,69.8,29.70,WSW,246,4.0,4.0,89,0.00,,,0.33,Wunderground v.1.15,2013-05-28 19:25:00,
2013-05-28 14:30:00,73.4,70.0,29.70,SSW,203,5.0,5.0,89,0.00,,,0.33,Wunderground v.1.15,2013-05-28 19:30:00,
2013-05-28 14:35:00,73.7,69.9,29.70,South,180,5.0,9.0,88,0.00,,,0.33,Wunderground v.1.15,2013-05-28 19:35:00,
2013-05-28 14:40:00,73.7,69.9,29.70,SSW,205,5.0,5.0,88,0.00,,,0.33,Wunderground v.1.15,2013-05-28 19:40:00,
2013-05-28 14:45:00,73.6,69.8,29.70,South,191,5.0,5.0,88,0.00,,,0.33,Wunderground v.1.15,2013-05-28 19:45:00,
2013-05-28 14:50:00,73.5,70.1,29.70,SSW,208,4.0,7.0,89,0.00,,,0.33,Wunderground v.1.15,2013-05-28 19:50:00,
2013-05-28 14:55:00,73.5,70.4,29.70,SW,234,4.0,7.0,90,0.00,,,0.33,Wunderground v.1.15,2013-05-28 19:55:00,
2013-05-28 15:00:00,73.8,70.4,29.70,WSW,255,4.0,7.0,89,0.00,,,0.33,Wunderground v.1.15,2013-05-28 20:00:00,
2013-05-28 15:05:00,74.0,70.6,29.70,West,276,4.0,7.0,89,0.00,,,0.33,Wunderground v.1.15,2013-05-28 20:05:00,
2013-05-28 15:10:00,74.1,70.6,29.70,WSW,256,4.0,4.0,89,0.00,,,0.33,Wunderground v.1.15,2013-05-28 20:10:00,
2013-05-28 15:15:00,74.1,70.6,29.70,South,188,3.0,8.0,89,0.00,,,0.33,Wunderground v.1.15,2013-05-28 20:15:00,
2013-05-28 15:20:00,73.8,70.4,29.70,SW,214,4.0,4.0,89,0.00,,,0.33,Wunderground v.1.15,2013-05-28 20:20:00,
2013-05-28 15:30:00,73.6,70.5,29.70,SSW,204,4.0,4.0,90,0.00,,,0.33,Wunderground v.1.15,2013-05-28 20:30:00,
2013-05-28 15:35:00,73.7,70.6,29.70,SW,228,4.0,5.0,90,0.00,,,0.33,Wunderground v.1.15,2013-05-28 20:35:00,
2013-05-28 15:40:00,74.1,71.0,29.70,WSW,238,4.0,4.0,90,0.00,,,0.33,Wunderground v.1.15,2013-05-28 20:40:00,
2013-05-28 15:45:00,74.6,71.1,29.70,SSW,198,4.0,5.0,89,0.00,,,0.33,Wunderground v.1.15,2013-05-28 20:45:00,
2013-05-28 15:50:00,74.9,71.4,29.70,SW,225,4.0,9.0,89,0.00,,,0.33,Wunderground v.1.15,2013-05-28 20:50:00,
2013-05-28 15:55:00,75.1,71.3,29.70,South,187,4.0,9.0,88,0.00,,,0.33,Wunderground v.1.15,2013-05-28 20:55:00,
2013-05-28 16:05:00,74.9,71.4,29.70,WSW,254,4.0,6.0,89,0.00,,,0.33,Wunderground v.1.15,2013-05-28 21:05:00,
2013-05-28 16:10:00,75.2,71.7,29.69,WSW,254,3.0,3.0,89,0.00,,,0.33,Wunderground v.1.15,2013-05-28 21:10:00,
2013-05-28 16:15:00,75.8,71.7,29.69,SW,220,3.0,5.0,87,0.00,,,0.33,Wunderground v.1.15,2013-05-28 21:15:00,
2013-05-28 16:20:00,76.4,71.9,29.69,SSE,165,3.0,3.0,86,0.00,,,0.33,Wunderground v.1.15,2013-05-28 21:20:00,
2013-05-28 16:25:00,76.5,71.7,29.69,West,279,4.0,4.0,85,0.00,,,0.33,Wunderground v.1.15,2013-05-28 21:25:00,
2013-05-28 16:30:00,76.6,72.1,29.69,SW,232,4.0,4.0,86,0.00,,,0.33,Wunderground v.1.15,2013-05-28 21:30:00,
2013-05-28 16:35:00,76.6,72.1,29.69,SSW,204,4.0,4.0,86,0.00,,,0.33,Wunderground v.1.15,2013-05-28 21:35:00,
2013-05-28 16:40:00,76.7,71.8,29.69,WSW,243,5.0,5.0,85,0.00,,,0.33,Wunderground v.1.15,2013-05-28 21:40:00,
2013-05-28 16:45:00,76.9,72.4,29.69,SW,236,4.0,5.0,86,0.00,,,0.33,Wunderground v.1.15,2013-05-28 21:45:00,
2013-05-28 16:50:00,77.1,72.6,29.69,SW,229,4.0,5.0,86,0.00,,,0.33,Wunderground v.1.15,2013-05-28 21:50:00,
2013-05-28 16:55:00,77.2,72.0,29.69,SSW,205,5.0,5.0,84,0.00,,,0.33,Wunderground v.1.15,2013-05-28 21:55:00,
2013-05-28 17:00:00,77.2,72.3,29.69,SSW,207,5.0,5.0,85,0.00,,,0.33,Wunderground v.1.15,2013-05-28 22:00:00,
2013-05-28 17:10:00,77.5,72.6,29.69,SW,232,5.0,6.0,85,0.00,,,0.33,Wunderground v.1.15,2013-05-28 22:10:00,
2013-05-28 17:15:00,77.8,72.9,29.69,SSW,204,5.0,6.0,85,0.00,,,0.33,Wunderground v.1.15,2013-05-28 22:15:00,
2013-05-28 17:20:00,78.1,72.9,29.68,SW,215,4.0,4.0,84,0.00,,,0.33,Wunderground v.1.15,2013-05-28 22:20:00,
2013-05-28 17:25:00,78.1,72.9,29.68,South,181,4.0,8.0,84,0.00,,,0.33,Wunderground v.1.15,2013-05-28 22:25:00,
2013-05-28 17:30:00,77.8,72.6,29.68,SSW,213,4.0,4.0,84,0.00,,,0.33,Wunderground v.1.15,2013-05-28 22:30:00,
2013-05-28 17:35:00,77.7,72.8,29.68,WSW,242,4.0,4.0,85,0.00,,,0.33,Wunderground v.1.15,2013-05-28 22:35:00,
2013-05-28 17:40:00,77.7,72.8,29.68,SSW,204,4.0,5.0,85,0.00,,,0.33,Wunderground v.1.15,2013-05-28 22:40:00,
2013-05-28 17:45:00,77.8,72.9,29.68,South,187,4.0,5.0,85,0.00,,,0.33,Wunderground v.1.15,2013-05-28 22:45:00,
2013-05-28 17:50:00,77.8,72.9,29.69,SW,231,4.0,9.0,85,0.00,,,0.33,Wunderground v.1.15,2013-05-28 22:50:00,
2013-05-28 17:55:00,77.9,73.0,29.68,WSW,249,4.0,9.0,85,0.00,,,0.33,Wunderground v.1.15,2013-05-28 22:55:00,
2013-05-28 18:00:00,77.9,73.0,29.68,South,190,4.0,5.0,85,0.00,,,0.33,Wunderground v.1.15,2013-05-28 23:00:00,
2013-05-28 18:05:00,77.5,72.6,29.67,SW,232,4.0,5.0,85,0.00,,,0.33,Wunderground v.1.15,2013-05-28 23:05:00,
2013-05-28 18:15:00,77.0,72.8,29.67,SSW,210,3.0,5.0,87,0.00,,,0.33,Wunderground v.1.15,2013-05-28 23:15:00,
2013-05-28 18:20:00,76.8,72.6,29.67,WSW,248,4.0,4.0,87,0.00,,,0.33,Wunderground v.1.15,2013-05-28 23:20:00,
2013-05-28 18:25:00,76.8,72.6,29.67,South,190,4.0,4.0,87,0.00,,,0.33,Wunderground v.1.15,2013-05-28 23:25:00,
2013-05-28 18:35:00,76.7,72.5,29.67,WSW,252,5.0,5.0,87,0.00,,,0.33,Wunderground v.1.15,2013-05-28 23:35:00,
2013-05-28 18:40:00,76.6,72.4,29.66,SW,232,4.0,4.0,87,0.00,,,0.33,Wunderground v.1.15,2013-05-28 23:40:00,
2013-05-28 18:45:00,76.5,72.3,29.67,South,173,4.0,5.0,87,0.00,,,0.33,Wunderground v.1.15,2013-05-28 23:45:00,
2013-05-28 18:50:00,76.4,72.6,29.66,South,182,4.0,4.0,88,0.00,,,0.33,Wunderground v.1.15,2013-05-28 23:50:00,
2013-05-28 18:55:00,76.2,72.4,29.66,South,183,4.0,5.0,88,0.00,,,0.33,Wunderground v.1.15,2013-05-28 23:55:00,
2013-05-28 19:00:00,76.1,72.3,29.66,SSW,202,2.0,2.0,88,0.00,,,0.33,Wunderground v.1.15,2013-05-29 00:00:00,
2013-05-28 19:05:00,75.9,72.1,29.66,SSW,205,2.0,2.0,88,0.00,,,0.33,Wunderground v.1.15,2013-05-29 00:05:00,
2013-05-28 19:10:00,75.8,72.3,29.67,SSW,206,2.0,5.0,89,0.00,,,0.33,Wunderground v.1.15,2013-05-29 00:10:00,
2013-05-28 19:15:00,75.7,72.2,29.67,WSW,240,3.0,5.0,89,0.00,,,0.33,Wunderground v.1.15,2013-05-29 00:15:00,
2013-05-28 19:20:00,75.6,72.1,29.68,SSW,193,4.0,4.0,89,0.00,,,0.33,Wunderground v.1.15,2013-05-29 00:20:00,
2013-05-28 19:25:00,75.6,72.1,29.67,SSE,148,4.0,4.0,89,0.00,,,0.33,Wunderground v.1.15,2013-05-29 00:25:00,
2013-05-28 19:30:00,75.5,72.0,29.67,SW,224,3.0,3.0,89,0.00,,,0.33,Wunderground v.1.15,2013-05-29 00:30:00,
2013-05-28 19:35:00,75.3,71.8,29.67,SW,226,3.0,3.0,89,0.00,,,0.33,Wunderground v.1.15,2013-05-29 00:35:00,
2013-05-28 19:40:00,75.1,71.6,29.67,SSW,200,3.0,3.0,89,0.00,,,0.33,Wunderground v.1.15,2013-05-29 00:40:00,
2013-05-28 19:45:00,75.0,71.5,29.67,SSW,205,4.0,4.0,89,0.00,,,0.33,Wunderground v.1.15,2013-05-29 00:45:00,
2013-05-28 19:50:00,74.8,71.3,29.67,South,182,4.0,6.0,89,0.00,,,0.33,Wunderground v.1.15,2013-05-29 00:50:00,
2013-05-28 19:55:00,74.7,71.2,29.66,WNW,288,4.0,6.0,89,0.00,,,0.33,Wunderground v.1.15,2013-05-29 00:55:00,
2013-05-28 20:00:00,74.6,71.1,29.66,WSW,255,3.0,3.0,89,0.00,,,0.33,Wunderground v.1.15,2013-05-29 01:00:00,
2013-05-28 20:05:00,74.4,70.9,29.65,SSW,208,3.0,3.0,89,0.00,,,0.33,Wunderground v.1.15,2013-05-29 01:05:00,
2013-05-28 20:10:00,74.2,71.1,29.66,SW,221,3.0,3.0,90,0.00,,,0.33,Wunderground v.1.15,2013-05-29 01:10:00,
2013-05-28 20:15:00,74.0,70.9,29.66,SSW,196,3.0,3.0,90,0.00,,,0.33,Wunderground v.1.15,2013-05-29 01:15:00,
2013-05-28 20:20:00,73.9,70.8,29.65,South,189,3.0,5.0,90,0.00,,,0.33,Wunderground v.1.15,2013-05-29 01:20:00,
2013-05-28 20:25:00,73.7,70.9,29.64,SW,222,3.0,5.0,91,0.00,,,0.33,Wunderground v.1.15,2013-05-29 01:25:00,
2013-05-28 20:30:00,73.5,70.7,29.63,South,170,5.0,5.0,91,0.00,,,0.33,Wunderground v.1.15,2013-05-29 01:30:00,
2013-05-28 20:35:00,73.3,70.5,29.64,SSW,211,5.0,5.0,91,0.00,,,0.33,Wunderground v.1.15,2013-05-29 01:35:00,
2013-05-28 20:40:00,73.2,70.4,29.67,WSW,250,6.0,6.0,91,0.00,,,0.33,Wunderground v.1.15,2013-05-29 01:40:00,
2013-05-28 20:45:00,73.2,70.7,29.69,WSW,255,6.0,6.0,92,0.00,,,0.33,Wunderground v.1.15,2013-05-29 01:45:00,
2013-05-28 20:50:00,73.1,70.3,29.70,West,271,6.0,6.0,91,0.00,,,0.33,Wunderground v.1.15,2013-05-29 01:50:00,
2013-05-28 20:55:00,73.2,70.4,29.71,SSW,198,7.0,7.0,91,0.00,,,0.33,Wunderground v.1.15,2013-05-29 01:55:00,
2013-05-28 21:00:00,73.3,70.5,29.71,West,266,8.0,8.0,91,0.00,,,0.34,Wunderground v.1.15,2013-05-29 02:00:00,
2013-05-28 21:05:00,73.1,70.6,29.70,SW,235,7.0,8.0,92,0.16,,,0.35,Wunderground v.1.15,2013-05-29 02:05:00,
2013-05-28 21:10:00,72.8,70.7,29.73,WSW,240,6.0,8.0,93,0.41,,,0.37,Wunderground v.1.15,2013-05-29 02:10:00,
2013-05-28 22:00:00,69.5,68.0,29.72,West,264,3.0,7.0,95,0.00,,,0.61,Wunderground v.1.15,2013-05-29 03:00:00,
2013-05-28 22:05:00,69.3,67.8,29.72,West,262,4.0,8.0,95,0.00,,,0.61,Wunderground v.1.15,2013-05-29 03:05:00,
2013-05-28 22:30:00,68.6,67.4,29.72,WSW,241,1.0,2.0,96,0.00,,,0.61,Wunderground v.1.15,2013-05-29 03:30:00,
2013-05-28 22:35:00,68.5,67.3,29.73,West,271,2.0,4.0,96,0.00,,,0.61,Wunderground v.1.15,2013-05-29 03:35:00,
2013-05-28 22:45:00,68.4,67.5,29.74,WSW,255,3.0,4.0,97,0.00,,,0.61,Wunderground v.1.15,2013-05-29 03:45:00,
2013-05-28 22:50:00,68.5,67.6,29.74,SW,220,3.0,3.0,97,0.00,,,0.61,Wunderground v.1.15,2013-05-29 03:50:00,
2013-05-28 22:55:00,68.5,67.6,29.74,WSW,254,3.0,3.0,97,0.00,,,0.61,Wunderground v.1.15,2013-05-29 03:55:00,
2013-05-28 23:00:00,68.5,67.6,29.74,SW,218,3.0,3.0,97,0.00,,,0.61,Wunderground v.1.15,2013-05-29 04:00:00,
2013-05-28 23:05:00,68.4,67.5,29.74,SW,217,3.0,3.0,97,0.00,,,0.61,Wunderground v.1.15,2013-05-29 04:05:00,
2013-05-28 23:10:00,68.4,67.5,29.74,SW,233,3.0,3.0,97,0.00,,,0.61,Wunderground v.1.15,2013-05-29 04:10:00,
2013-05-28 23:15:00,68.5,67.6,29.74,WSW,244,3.0,5.0,97,0.00,,,0.61,Wunderground v.1.15,2013-05-29 04:15:00,
2013-05-28 23:20:00,68.5,67.6,29.73,SSE,155,3.0,3.0,97,0.00,,,0.61,Wunderground v.1.15,2013-05-29 04:20:00,
2013-05-28 23:25:00,68.5,67.6,29.73,South,170,3.0,3.0,97,0.00,,,0.61,Wunderground v.1.15,2013-05-29 04:25:00,
2013-05-28 23:30:00,68.4,67.5,29.73,SSW,209,2.0,2.0,97,0.00,,,0.61,Wunderground v.1.15,2013-05-29 04:30:00,
2013-05-28 23:35:00,68.3,67.4,29.74,SW,215,2.0,3.0,97,0.00,,,0.61,Wunderground v.1.15,2013-05-29 04:35:00,
2013-05-28 23:40:00,68.2,67.0,29.74,SSW,212,2.0,2.0,96,0.00,,,0.61,Wunderground v.1.15,2013-05-29 04:40:00,
2013-05-28 23:45:00,68.1,66.9,29.75,South,172,2.0,2.0,96,0.00,,,0.61,Wunderground v.1.15,2013-05-29 04:45:00,
2013-05-28 23:50:00,67.9,66.7,29.75,SSW,200,2.0,2.0,96,0.00,,,0.61,Wunderground v.1.15,2013-05-29 04:50:00,
2013-05-28 23:55:00,67.8,66.6,29.75,SSE,168,3.0,3.0,96,0.00,,,0.61,Wunderground v.1.15,2013-05-29 04:55:00,